{"data":{"norad_id":68254,"intl_designator":"2026-054Y","name":"STARLINK-37084","alt_names":[],"object_type":"PAYLOAD","status":"ACTIVE","operator":null,"country":"US","launch_date":"2026-03-17","launch_site_code":"AFETR","launch_vehicle":null,"mission":null,"orbit_class":"UNKNOWN","rcs_meters":null,"size_class":null,"mass_kg":null,"dimensions":null,"purposes":["comms"],"wikipedia_slug":null,"has_3d_model":false,"image_url":null,"decayed_at":null,"tle_current":{"epoch":"2026-09-19T07:08:43.642176Z","epoch_age_seconds":155536,"freshness":"FRESH","line1":"1 68254U 26054Y   26262.29772734  .00013240  00000+0  40231-3 0  9993","line2":"2 68254  53.1591 107.6661 0001170  85.7228 274.3909 15.34398614 28771","mean_motion":15.34398614,"eccentricity":0.000117,"inclination_deg":53.1591,"raan_deg":107.6661,"arg_perigee_deg":85.7228,"mean_anomaly_deg":274.3909,"bstar":0.00040231,"rev_number":2877,"period_min":93.847842852653,"perigee_km":461.90698090421,"apogee_km":463.50773848438,"semimajor_km":6840.8443596943,"source":"CELESTRAK","updated_at":"2026-09-20T09:00:43.843974Z"}}}